Location: Grange Verzio
(44.5000°N, 6.9833°E)
Time: 16:55:05
(UTC+00:00)

Cosmos 1140 Rocket - Visible Passes

Search period start: 19 April 2025 00:00
Search period end: 29 April 2025 00:00
Orbit: 740 x 763 km, 74.1° (Epoch: 19 April)

Date Brightness Start Highest point End Pass type
(mag) Time Alt. Az. Time Alt. Az. Time Alt. Az.
19 Apr 6.1 19:57:29 10° WNW 20:00:39 16° W 20:03:47 10° SW visible
20 Apr 5.3 19:14:29 10° NW 19:18:58 30° W 19:23:25 10° SSW visible
22 Apr 6.3 19:33:45 10° WNW 19:36:09 13° W 19:38:34 10° WSW visible
23 Apr 5.8 18:50:21 10° NW 18:54:32 25° W 18:58:40 10° SSW visible
25 Apr 6.7 19:10:32 10° W 19:11:39 11° W 19:12:46 10° WSW visible
